Buffalo, NY

10:14 PM EDT on April 23, 2017 (GMT -0400)
Buffalo Niagara International

Weather History for KBUF - March, 2014

Change the Weather History Date:

Saturday, March 15, 2014

  Actual Average Record
Temperature  
Mean Temperature 32 °F 34 °F  
Max Temperature 42 °F 41 °F 79 °F (1990)
Min Temperature 21 °F 26 °F 7 °F (1895)
Degree Days  
Heating Degree Days 33 32  
Month to date heating degree days 633 508  
Since 1 July heating degree days 5739 5252  
Cooling Degree Days 0 0  
Month to date cooling degree days 0 0  
Year to date cooling degree days 0 0  
Moisture  
Dew Point 25 °F    
Average Humidity 70    
Maximum Humidity 89    
Minimum Humidity 50    
Precipitation  
Precipitation T in 0.09 in 0.83 in (1912)
Month to date precipitation 1.25 1.35  
Year to date precipitation 8.03 7.02  
Snow  
Snow T in 0.40 in 4.80 in (1916)
Month to date snowfall 16.4 7.6  
Since 1 July snowfall 120.6 86.4  
Snow Depth 0.00 in    
Sea Level Pressure  
Sea Level Pressure 29.87 in    
Wind  
Wind Speed 17 mph (WSW)    
Max Wind Speed 29 mph    
Max Gust Speed 36 mph    
Visibility 10 miles    
Events Snow    
T = Trace of Precipitation, MM = Missing Value Source: NWS Daily Summary

Daily Weather History Graph

Daily Weather History Graph

Search for Another Location

Airport or City:

Trip Planner

Search our weather history database for the weather conditions in past years. The results will help you decide how hot, cold, wet, or windy it might be!

Date:

Astronomy

Mar. 15, 2014 Rise Set
Actual Time 7:26 AM EDT 7:21 PM EDT
Civil Twilight 6:58 AM EDT 7:49 PM EDT
Nautical Twilight 6:25 AM EDT 8:22 PM EDT
Astronomical Twilight 5:52 AM EDT 8:56 PM EDT
Moon 6:38 PM EDT (3/15) 6:38 AM EDT (3/15)
Length of Visible Light 12h 50m
Length of Day
11h 54m
Waxing Gibbous, 99% of the Moon is Illuminated
Mar 15
Waxing Gibbous
Mar 16
Full
Mar 23
Last Quarter
Mar 30
New
Apr 7
First Quarter

Hourly Weather History & Observations

Time (EDT) Temp. Windchill Dew Point Humidity Pressure Visibility Wind Dir Wind Speed Gust Speed Precip Events Conditions
12:54 AM 42.1 °F 32.8 °F 34.0 °F 73% 29.61 in 10.0 mi SW 21.9 mph 29.9 mph N/A   Mostly Cloudy
1:54 AM 39.9 °F 31.4 °F 32.0 °F 73% 29.62 in 10.0 mi SW 16.1 mph 25.3 mph N/A   Partly Cloudy
2:54 AM 37.9 °F 27.9 °F 32.0 °F 79% 29.62 in 10.0 mi SW 19.6 mph 26.5 mph N/A   Mostly Cloudy
3:54 AM 37.0 °F 26.4 °F 32.0 °F 82% 29.63 in 10.0 mi WSW 20.7 mph 28.8 mph N/A   Mostly Cloudy
4:54 AM 37.0 °F 28.5 °F 30.9 °F 79% 29.65 in 10.0 mi WSW 13.8 mph - N/A   Mostly Cloudy
5:54 AM 36.0 °F 24.2 °F 30.0 °F 79% 29.68 in 10.0 mi WSW 24.2 mph 34.5 mph N/A   Mostly Cloudy
6:23 AM 35.1 °F 23.5 °F 30.0 °F 82% 29.67 in 10.0 mi WSW 21.9 mph 33.4 mph N/A   Overcast
6:54 AM 35.1 °F 24.1 °F 30.0 °F 82% 29.70 in 10.0 mi WSW 19.6 mph 32.2 mph N/A   Overcast
7:54 AM 35.1 °F 23.3 °F 30.9 °F 85% 29.72 in 8.0 mi WSW 23.0 mph 29.9 mph 0.00 in Snow Light Snow
8:54 AM 34.0 °F 22.7 °F 30.9 °F 89% 29.75 in 10.0 mi WSW 19.6 mph 29.9 mph 0.00 in   Overcast
9:54 AM 35.1 °F 24.8 °F 30.9 °F 85% 29.78 in 10.0 mi SW 17.3 mph 26.5 mph 0.00 in Snow Light Snow
10:54 AM 35.1 °F 24.8 °F 30.9 °F 85% 29.81 in 9.0 mi WSW 17.3 mph - 0.00 in   Mostly Cloudy
11:08 AM 36.0 °F 25.6 °F 32.0 °F 86% 29.80 in 9.0 mi WSW 18.4 mph 26.5 mph N/A   Mostly Cloudy
11:29 AM 36.0 °F 26.0 °F 32.0 °F 86% 29.80 in 9.0 mi WSW 17.3 mph 27.6 mph N/A   Mostly Cloudy
11:54 AM 36.0 °F 26.0 °F 32.0 °F 86% 29.83 in 9.0 mi WSW 17.3 mph 26.5 mph N/A   Overcast
12:54 PM 35.1 °F 25.9 °F 30.9 °F 85% 29.86 in 9.0 mi WSW 13.8 mph 24.2 mph N/A   Overcast
1:54 PM 36.0 °F 27.1 °F 27.0 °F 70% 29.89 in 10.0 mi West 13.8 mph 25.3 mph 0.00 in Snow Light Snow
2:54 PM 34.0 °F 21.5 °F 24.1 °F 67% 29.93 in 10.0 mi West 24.2 mph 32.2 mph 0.00 in Snow Light Snow
3:47 PM 34.0 °F 21.8 °F 21.9 °F 61% 29.94 in 10.0 mi West 23.0 mph 29.9 mph 0.00 in   Mostly Cloudy
3:54 PM 33.1 °F 20.6 °F 21.9 °F 64% 29.97 in 10.0 mi WNW 23.0 mph 32.2 mph 0.00 in   Mostly Cloudy
4:54 PM 32.0 °F 20.1 °F 19.9 °F 61% 30.01 in 10.0 mi West 19.6 mph 34.5 mph N/A   Mostly Cloudy
5:54 PM 32.0 °F 20.8 °F 19.0 °F 59% 30.05 in 10.0 mi West 17.3 mph 26.5 mph N/A   Mostly Cloudy
6:54 PM 28.0 °F 15.7 °F 12.9 °F 53% 30.10 in 10.0 mi WNW 17.3 mph 32.2 mph N/A   Scattered Clouds
7:54 PM 27.0 °F 13.5 °F 12.9 °F 56% 30.13 in 10.0 mi WNW 19.6 mph 25.3 mph N/A   Scattered Clouds
8:54 PM 26.1 °F 14.5 °F 12.9 °F 58% 30.17 in 10.0 mi WNW 13.8 mph - N/A   Partly Cloudy
9:54 PM 24.1 °F 15.2 °F 12.9 °F 62% 30.19 in 10.0 mi NW 8.1 mph - N/A   Scattered Clouds
10:54 PM 23.0 °F 11.7 °F 12.0 °F 63% 30.19 in 10.0 mi WNW 11.5 mph - N/A   Partly Cloudy
11:54 PM 21.9 °F 11.0 °F 12.9 °F 68% 30.20 in 10.0 mi WNW 10.4 mph - N/A   Partly Cloudy